Time,TemperatureF,DewpointF,PressureIn,WindDirection,WindDirectionDegrees,WindSpeedMPH,WindSpeedGustMPH,Humidity,HourlyPrecipIn,Conditions,Clouds,dailyrainin,SoftwareType,DateUTC
2013-03-25 00:00:00,32.9,16.3,31.01,North,0,0.0,0.0,50,0.00,,---,0.00,VWS V14.00,2013-03-25 04:00:00,
2013-03-25 00:01:00,32.9,16.3,31.01,North,0,0.0,0.0,50,0.00,,---,0.00,VWS V14.00,2013-03-25 04:01:00,
2013-03-25 00:03:00,33.1,16.5,31.01,North,0,0.0,0.0,50,0.00,,---,0.00,VWS V14.00,2013-03-25 04:03:00,
2013-03-25 00:06:00,33.1,16.5,31.01,North,0,0.0,0.0,50,0.00,,---,0.00,VWS V14.00,2013-03-25 04:06:00,
2013-03-25 00:12:00,33.1,16.9,31.01,North,0,0.0,0.0,51,0.00,,---,0.00,VWS V14.00,2013-03-25 04:12:00,
2013-03-25 00:18:00,33.1,16.9,31.01,North,0,0.0,0.0,51,0.00,,---,0.00,VWS V14.00,2013-03-25 04:18:00,
2013-03-25 00:23:00,33.1,16.9,31.01,North,0,0.0,0.0,51,0.00,,---,0.00,VWS V14.00,2013-03-25 04:23:00,
2013-03-25 00:28:00,33.1,16.5,31.01,North,0,0.0,0.0,50,0.00,,---,0.00,VWS V14.00,2013-03-25 04:28:00,
2013-03-25 00:34:00,33.1,16.9,31.01,North,0,0.0,0.0,51,0.00,,---,0.00,VWS V14.00,2013-03-25 04:34:00,
2013-03-25 00:39:00,33.1,16.9,31.01,North,0,0.0,0.0,51,0.00,,---,0.00,VWS V14.00,2013-03-25 04:39:00,
2013-03-25 00:44:00,33.1,16.9,31.01,North,0,0.0,0.0,51,0.00,,---,0.00,VWS V14.00,2013-03-25 04:44:00,
2013-03-25 00:49:00,32.9,16.8,31.01,North,0,0.0,0.0,51,0.00,,---,0.00,VWS V14.00,2013-03-25 04:49:00,
2013-03-25 00:54:00,32.7,16.6,31.01,North,0,0.0,0.0,51,0.00,,---,0.00,VWS V14.00,2013-03-25 04:54:00,
2013-03-25 01:00:00,32.7,17.0,31.01,North,0,0.0,0.0,52,0.00,,---,0.00,VWS V14.00,2013-03-25 05:00:00,
2013-03-25 01:07:00,32.7,17.0,31.01,North,0,0.0,0.0,52,0.00,,---,0.00,VWS V14.00,2013-03-25 05:07:00,
2013-03-25 01:13:00,32.5,16.4,31.01,North,0,0.0,0.0,51,0.00,,---,0.00,VWS V14.00,2013-03-25 05:13:00,
2013-03-25 01:18:00,32.4,16.3,31.01,North,0,0.0,0.0,51,0.00,,---,0.00,VWS V14.00,2013-03-25 05:18:00,
2013-03-25 01:24:00,32.2,16.1,31.01,North,0,0.0,0.0,51,0.00,,---,0.00,VWS V14.00,2013-03-25 05:24:00,
2013-03-25 01:29:00,32.2,16.5,31.01,North,0,0.0,0.0,52,0.00,,---,0.00,VWS V14.00,2013-03-25 05:29:00,
2013-03-25 01:34:00,32.0,16.4,31.01,North,0,0.0,0.0,52,0.00,,---,0.00,VWS V14.00,2013-03-25 05:34:00,
2013-03-25 01:39:00,31.8,16.2,31.01,North,0,0.0,0.0,52,0.00,,---,0.00,VWS V14.00,2013-03-25 05:39:00,
2013-03-25 01:45:00,31.8,16.6,31.01,North,0,0.0,0.0,53,0.00,,---,0.00,VWS V14.00,2013-03-25 05:45:00,
2013-03-25 01:52:00,31.6,16.5,31.01,North,0,0.0,0.0,53,0.00,,---,0.00,VWS V14.00,2013-03-25 05:52:00,
2013-03-25 01:58:00,31.6,16.5,31.01,North,0,0.0,0.0,53,0.00,,---,0.00,VWS V14.00,2013-03-25 05:58:00,
2013-03-25 02:04:00,31.3,16.1,31.01,North,0,0.0,0.0,53,0.00,,---,0.00,VWS V14.00,2013-03-25 06:04:00,
2013-03-25 02:10:00,31.1,16.0,31.01,North,0,0.0,0.0,53,0.00,,---,0.00,VWS V14.00,2013-03-25 06:10:00,
2013-03-25 02:15:00,31.1,16.4,31.01,North,0,0.0,0.0,54,0.00,,---,0.00,VWS V14.00,2013-03-25 06:15:00,
2013-03-25 02:20:00,31.1,16.4,31.01,North,0,0.0,0.0,54,0.00,,---,0.00,VWS V14.00,2013-03-25 06:20:00,
2013-03-25 02:25:00,31.1,16.8,31.01,North,0,0.0,0.0,55,0.00,,---,0.00,VWS V14.00,2013-03-25 06:25:00,
2013-03-25 02:31:00,30.9,16.7,31.01,North,0,0.0,0.0,55,0.00,,---,0.00,VWS V14.00,2013-03-25 06:31:00,
2013-03-25 02:37:00,30.9,17.1,31.01,North,0,0.0,0.0,56,0.00,,---,0.00,VWS V14.00,2013-03-25 06:37:00,
2013-03-25 02:43:00,30.9,16.7,31.01,North,0,0.0,0.0,55,0.00,,---,0.00,VWS V14.00,2013-03-25 06:43:00,
2013-03-25 02:48:00,30.9,16.7,31.01,North,0,0.0,0.0,55,0.00,,---,0.00,VWS V14.00,2013-03-25 06:48:00,
2013-03-25 02:54:00,30.7,16.5,31.01,North,0,0.0,0.0,55,0.00,,---,0.00,VWS V14.00,2013-03-25 06:54:00,
2013-03-25 03:00:00,30.7,16.5,31.01,North,0,0.0,0.0,55,0.00,,---,0.00,VWS V14.00,2013-03-25 07:00:00,
2013-03-25 03:05:00,30.7,16.5,31.01,North,0,0.0,0.0,55,0.00,,---,0.00,VWS V14.00,2013-03-25 07:05:00,
2013-03-25 03:10:00,30.7,16.5,31.01,North,0,0.0,0.0,55,0.00,,---,0.00,VWS V14.00,2013-03-25 07:10:00,
2013-03-25 03:16:00,30.7,16.5,31.01,North,0,0.0,0.0,55,0.00,,---,0.00,VWS V14.00,2013-03-25 07:16:00,
2013-03-25 03:22:00,30.7,16.5,31.01,North,0,0.0,0.0,55,0.00,,---,0.00,VWS V14.00,2013-03-25 07:22:00,
2013-03-25 03:28:00,30.7,16.9,31.01,North,0,0.0,0.0,56,0.00,,---,0.00,VWS V14.00,2013-03-25 07:28:00,
2013-03-25 03:33:00,30.7,16.9,31.01,North,0,0.0,0.0,56,0.00,,---,0.00,VWS V14.00,2013-03-25 07:33:00,
2013-03-25 03:38:00,30.7,16.9,31.01,North,0,0.0,0.0,56,0.00,,---,0.00,VWS V14.00,2013-03-25 07:38:00,
2013-03-25 03:44:00,30.7,16.9,31.01,North,0,0.0,0.0,56,0.00,,---,0.00,VWS V14.00,2013-03-25 07:44:00,
2013-03-25 03:49:00,30.7,16.9,31.01,North,0,0.0,0.0,56,0.00,,---,0.00,VWS V14.00,2013-03-25 07:49:00,
2013-03-25 03:54:00,30.9,17.1,31.01,North,0,0.0,0.0,56,0.00,,---,0.00,VWS V14.00,2013-03-25 07:54:00,
2013-03-25 03:59:00,31.1,17.2,31.01,North,0,0.0,0.0,56,0.00,,---,0.00,VWS V14.00,2013-03-25 07:59:00,
2013-03-25 04:05:00,31.3,16.6,31.01,North,0,0.0,0.0,54,0.00,,---,0.00,VWS V14.00,2013-03-25 08:05:00,
2013-03-25 04:11:00,31.5,16.3,31.01,North,0,0.0,0.0,53,0.00,,---,0.00,VWS V14.00,2013-03-25 08:11:00,
2013-03-25 04:17:00,31.5,15.9,31.01,North,0,0.0,0.0,52,0.00,,---,0.00,VWS V14.00,2013-03-25 08:17:00,
2013-03-25 04:23:00,31.3,15.7,31.01,North,0,0.0,0.0,52,0.00,,---,0.00,VWS V14.00,2013-03-25 08:23:00,
2013-03-25 04:29:00,31.1,15.5,31.01,North,0,0.0,0.0,52,0.00,,---,0.00,VWS V14.00,2013-03-25 08:29:00,
2013-03-25 04:34:00,31.1,15.5,31.01,North,0,0.0,0.0,52,0.00,,---,0.00,VWS V14.00,2013-03-25 08:34:00,
2013-03-25 04:39:00,31.1,15.1,31.01,North,0,0.0,0.0,51,0.00,,---,0.00,VWS V14.00,2013-03-25 08:39:00,
2013-03-25 04:44:00,31.1,15.1,31.01,North,0,0.0,0.0,51,0.00,,---,0.00,VWS V14.00,2013-03-25 08:44:00,
2013-03-25 04:50:00,31.1,15.1,31.01,North,0,0.0,0.0,51,0.00,,---,0.00,VWS V14.00,2013-03-25 08:50:00,
2013-03-25 04:57:00,30.9,14.5,31.01,North,0,0.0,0.0,50,0.00,,---,0.00,VWS V14.00,2013-03-25 08:57:00,
2013-03-25 05:03:00,30.9,14.5,31.01,North,0,0.0,0.0,50,0.00,,---,0.00,VWS V14.00,2013-03-25 09:03:00,
2013-03-25 05:08:00,30.9,14.5,31.01,North,0,0.0,0.0,50,0.00,,---,0.00,VWS V14.00,2013-03-25 09:08:00,
2013-03-25 05:13:00,30.9,14.0,31.01,North,0,0.0,0.0,49,0.00,,---,0.00,VWS V14.00,2013-03-25 09:13:00,
2013-03-25 05:19:00,30.7,14.3,31.01,North,0,0.0,0.0,50,0.00,,---,0.00,VWS V14.00,2013-03-25 09:19:00,
2013-03-25 05:24:00,30.6,14.1,31.01,North,0,0.0,0.0,50,0.00,,---,0.00,VWS V14.00,2013-03-25 09:24:00,
2013-03-25 05:29:00,30.6,14.1,31.01,North,0,0.0,0.0,50,0.00,,---,0.00,VWS V14.00,2013-03-25 09:29:00,
2013-03-25 05:34:00,30.6,14.1,31.01,North,0,0.0,0.0,50,0.00,,---,0.00,VWS V14.00,2013-03-25 09:34:00,
2013-03-25 05:40:00,30.6,14.1,31.01,North,0,0.0,0.0,50,0.00,,---,0.00,VWS V14.00,2013-03-25 09:40:00,
2013-03-25 05:46:00,30.4,14.4,31.01,North,0,0.0,0.0,51,0.00,,---,0.00,VWS V14.00,2013-03-25 09:46:00,
2013-03-25 05:52:00,30.2,14.3,31.01,North,0,0.0,0.0,51,0.00,,---,0.00,VWS V14.00,2013-03-25 09:52:00,
2013-03-25 05:58:00,30.4,14.4,31.01,North,0,0.0,0.0,51,0.00,,---,0.00,VWS V14.00,2013-03-25 09:58:00,
2013-03-25 06:03:00,30.4,14.4,31.01,North,0,0.0,0.0,51,0.00,,---,0.00,VWS V14.00,2013-03-25 10:03:00,
2013-03-25 06:09:00,30.7,14.3,31.01,North,0,0.0,0.0,50,0.00,,---,0.00,VWS V14.00,2013-03-25 10:09:00,
2013-03-25 06:14:00,30.9,13.6,31.01,North,0,0.0,0.0,48,0.00,,---,0.00,VWS V14.00,2013-03-25 10:14:00,
2013-03-25 06:19:00,30.9,13.6,31.01,North,0,0.0,0.0,48,0.00,,---,0.00,VWS V14.00,2013-03-25 10:19:00,
2013-03-25 06:25:00,30.7,13.4,31.01,North,0,0.0,0.0,48,0.00,,---,0.00,VWS V14.00,2013-03-25 10:25:00,
2013-03-25 06:32:00,30.6,12.7,31.01,North,0,0.0,0.0,47,0.00,,---,0.00,VWS V14.00,2013-03-25 10:32:00,
2013-03-25 06:37:00,30.6,13.2,31.01,North,0,0.0,0.0,48,0.00,,---,0.00,VWS V14.00,2013-03-25 10:37:00,
2013-03-25 06:42:00,30.4,13.1,31.01,North,0,0.0,0.0,48,0.00,,---,0.00,VWS V14.00,2013-03-25 10:42:00,
2013-03-25 06:48:00,30.4,13.1,31.01,North,0,0.0,0.0,48,0.00,,---,0.00,VWS V14.00,2013-03-25 10:48:00,
2013-03-25 06:54:00,30.2,12.9,31.01,North,0,0.0,0.0,48,0.00,,---,0.00,VWS V14.00,2013-03-25 10:54:00,
2013-03-25 07:00:00,30.2,13.4,31.01,North,0,0.0,0.0,49,0.00,,---,0.00,VWS V14.00,2013-03-25 11:00:00,
2013-03-25 07:05:00,30.4,13.1,31.01,North,0,0.0,0.0,48,0.00,,---,0.00,VWS V14.00,2013-03-25 11:05:00,
2013-03-25 07:10:00,30.4,13.1,31.01,North,0,0.0,0.0,48,0.00,,---,0.00,VWS V14.00,2013-03-25 11:10:00,
2013-03-25 07:17:00,30.6,13.7,31.01,North,0,0.0,0.0,49,0.00,,---,0.00,VWS V14.00,2013-03-25 11:17:00,
2013-03-25 07:22:00,30.7,13.9,31.01,North,0,0.0,0.0,49,0.00,,---,0.00,VWS V14.00,2013-03-25 11:22:00,
2013-03-25 07:28:00,31.1,13.7,31.01,North,0,0.0,0.0,48,0.00,,---,0.00,VWS V14.00,2013-03-25 11:28:00,
2013-03-25 07:34:00,31.5,14.1,31.01,North,0,0.0,0.0,48,0.00,,---,0.00,VWS V14.00,2013-03-25 11:34:00,
2013-03-25 07:40:00,32.0,14.1,31.01,North,0,0.0,0.0,47,0.00,,---,0.00,VWS V14.00,2013-03-25 11:40:00,
2013-03-25 07:45:00,32.5,14.6,31.01,North,0,0.0,0.0,47,0.00,,---,0.00,VWS V14.00,2013-03-25 11:45:00,
2013-03-25 07:50:00,33.1,14.6,31.01,North,0,0.0,0.0,46,0.00,,---,0.00,VWS V14.00,2013-03-25 11:50:00,
2013-03-25 07:55:00,33.6,14.6,31.01,North,0,0.0,0.0,45,0.00,,---,0.00,VWS V14.00,2013-03-25 11:55:00,
2013-03-25 08:01:00,34.0,14.4,31.01,North,0,0.0,0.0,44,0.00,,---,0.00,VWS V14.00,2013-03-25 12:01:00,
2013-03-25 08:06:00,34.3,14.7,31.01,North,0,0.0,0.0,44,0.00,,---,0.00,VWS V14.00,2013-03-25 12:06:00,
2013-03-25 08:12:00,34.7,14.5,31.01,North,0,0.0,0.0,43,0.00,,---,0.00,VWS V14.00,2013-03-25 12:12:00,
2013-03-25 08:17:00,34.9,14.7,31.01,North,0,0.0,0.0,43,0.00,,---,0.00,VWS V14.00,2013-03-25 12:17:00,
2013-03-25 08:23:00,36.1,15.3,31.01,North,0,0.0,0.0,42,0.00,,---,0.00,VWS V14.00,2013-03-25 12:23:00,
2013-03-25 08:29:00,37.9,16.9,31.01,North,0,0.0,0.0,42,0.00,,---,0.00,VWS V14.00,2013-03-25 12:29:00,
2013-03-25 08:34:00,41.0,18.5,31.01,North,0,0.0,0.0,40,0.00,,---,0.00,VWS V14.00,2013-03-25 12:34:00,
2013-03-25 08:39:00,42.4,19.2,31.01,North,0,0.0,0.0,39,0.00,,---,0.00,VWS V14.00,2013-03-25 12:39:00,
2013-03-25 08:44:00,42.3,18.5,31.01,North,0,0.0,0.0,38,0.00,,---,0.00,VWS V14.00,2013-03-25 12:44:00,
2013-03-25 08:50:00,42.1,18.3,31.01,North,0,0.0,0.0,38,0.00,,---,0.00,VWS V14.00,2013-03-25 12:50:00,
2013-03-25 08:57:00,41.9,18.2,31.01,North,0,0.0,0.0,38,0.00,,---,0.00,VWS V14.00,2013-03-25 12:57:00,
2013-03-25 09:02:00,41.5,17.8,31.01,North,0,0.0,0.0,38,0.00,,---,0.00,VWS V14.00,2013-03-25 13:02:00,
2013-03-25 09:08:00,40.6,17.6,31.01,North,0,0.0,0.0,39,0.00,,---,0.00,VWS V14.00,2013-03-25 13:08:00,
2013-03-25 09:14:00,40.3,17.9,31.01,North,0,0.0,0.0,40,0.00,,---,0.00,VWS V14.00,2013-03-25 13:14:00,
2013-03-25 09:20:00,41.0,18.5,31.01,North,0,0.0,0.0,40,0.00,,---,0.00,VWS V14.00,2013-03-25 13:20:00,
2013-03-25 09:25:00,42.4,19.2,31.01,North,0,0.0,0.0,39,0.00,,---,0.00,VWS V14.00,2013-03-25 13:25:00,
2013-03-25 09:30:00,44.1,20.1,31.01,North,0,0.0,0.0,38,0.00,,---,0.00,VWS V14.00,2013-03-25 13:30:00,
2013-03-25 09:37:00,42.6,19.4,31.01,North,0,0.0,0.0,39,0.00,,---,0.00,VWS V14.00,2013-03-25 13:37:00,
2013-03-25 09:43:00,41.7,18.6,31.01,North,0,0.0,0.0,39,0.00,,---,0.00,VWS V14.00,2013-03-25 13:43:00,
2013-03-25 09:48:00,41.7,18.6,31.01,North,0,0.0,0.0,39,0.00,,---,0.00,VWS V14.00,2013-03-25 13:48:00,
2013-03-25 09:53:00,43.2,19.9,31.01,North,0,0.0,0.0,39,0.00,,---,0.00,VWS V14.00,2013-03-25 13:53:00,
2013-03-25 09:58:00,43.2,19.9,31.01,North,0,0.0,0.0,39,0.00,,---,0.00,VWS V14.00,2013-03-25 13:58:00,
2013-03-25 10:04:00,42.6,19.4,31.01,North,0,0.0,0.0,39,0.00,,---,0.00,VWS V14.00,2013-03-25 14:04:00,
2013-03-25 10:09:00,42.4,19.2,31.01,North,0,0.0,0.0,39,0.00,,---,0.00,VWS V14.00,2013-03-25 14:09:00,
2013-03-25 10:14:00,42.3,19.1,31.01,North,0,0.0,0.0,39,0.00,,---,0.00,VWS V14.00,2013-03-25 14:14:00,
2013-03-25 10:20:00,42.4,19.2,31.01,North,0,0.0,0.0,39,0.00,,---,0.00,VWS V14.00,2013-03-25 14:20:00,
2013-03-25 10:26:00,42.8,19.6,31.01,North,0,0.0,0.0,39,0.00,,---,0.00,VWS V14.00,2013-03-25 14:26:00,
2013-03-25 10:32:00,43.0,19.7,31.01,North,0,0.0,0.0,39,0.00,,---,0.00,VWS V14.00,2013-03-25 14:32:00,
2013-03-25 10:37:00,42.6,19.4,31.01,North,0,0.0,0.0,39,0.00,,---,0.00,VWS V14.00,2013-03-25 14:37:00,
2013-03-25 10:43:00,42.8,19.6,31.01,North,0,0.0,0.0,39,0.00,,---,0.00,VWS V14.00,2013-03-25 14:43:00,
2013-03-25 10:49:00,43.2,19.9,31.01,North,0,0.0,0.0,39,0.00,,---,0.00,VWS V14.00,2013-03-25 14:49:00,
2013-03-25 10:55:00,44.2,20.9,31.01,North,0,0.0,0.0,39,0.00,,---,0.00,VWS V14.00,2013-03-25 14:55:00,
2013-03-25 11:00:00,45.0,20.9,31.01,North,0,0.0,0.0,38,0.00,,---,0.00,VWS V14.00,2013-03-25 15:00:00,
2013-03-25 11:06:00,45.3,21.2,31.01,North,0,0.0,0.0,38,0.00,,---,0.00,VWS V14.00,2013-03-25 15:06:00,
2013-03-25 11:12:00,46.6,21.7,31.01,North,0,0.0,0.0,37,0.00,,---,0.00,VWS V14.00,2013-03-25 15:12:00,
2013-03-25 11:18:00,46.2,22.0,31.01,North,0,0.0,0.0,38,0.00,,---,0.00,VWS V14.00,2013-03-25 15:18:00,
2013-03-25 11:23:00,45.7,21.5,31.01,North,0,0.0,0.0,38,0.00,,---,0.00,VWS V14.00,2013-03-25 15:23:00,
2013-03-25 11:29:00,46.2,22.0,31.01,North,0,0.0,0.0,38,0.00,,---,0.00,VWS V14.00,2013-03-25 15:29:00,
2013-03-25 11:35:00,46.0,21.2,31.01,North,0,0.0,0.0,37,0.00,,---,0.00,VWS V14.00,2013-03-25 15:35:00,
2013-03-25 11:40:00,45.1,21.1,31.01,North,0,0.0,0.0,38,0.00,,---,0.00,VWS V14.00,2013-03-25 15:40:00,
2013-03-25 11:45:00,45.1,21.1,31.01,North,0,0.0,0.0,38,0.00,,---,0.00,VWS V14.00,2013-03-25 15:45:00,
2013-03-25 11:50:00,45.1,21.1,31.01,North,0,0.0,0.0,38,0.00,,---,0.00,VWS V14.00,2013-03-25 15:50:00,
2013-03-25 11:56:00,45.1,21.1,31.01,North,0,0.0,0.0,38,0.00,,---,0.00,VWS V14.00,2013-03-25 15:56:00,
2013-03-25 12:01:00,44.6,20.6,31.01,North,0,0.0,0.0,38,0.00,,---,0.00,VWS V14.00,2013-03-25 16:01:00,
2013-03-25 12:06:00,43.7,19.8,31.01,North,0,0.0,0.0,38,0.00,,---,0.00,VWS V14.00,2013-03-25 16:06:00,
2013-03-25 12:11:00,42.6,19.4,31.01,North,0,0.0,0.0,39,0.00,,---,0.00,VWS V14.00,2013-03-25 16:11:00,
2013-03-25 12:17:00,41.7,18.6,31.01,North,0,0.0,0.0,39,0.00,,---,0.00,VWS V14.00,2013-03-25 16:17:00,
2013-03-25 12:22:00,41.4,18.3,31.01,North,0,0.0,0.0,39,0.00,,---,0.00,VWS V14.00,2013-03-25 16:22:00,
2013-03-25 12:27:00,40.8,18.4,31.01,North,0,0.0,0.0,40,0.00,,---,0.00,VWS V14.00,2013-03-25 16:27:00,
2013-03-25 12:32:00,40.6,18.8,31.01,North,0,0.0,0.0,41,0.00,,---,0.00,VWS V14.00,2013-03-25 16:32:00,
2013-03-25 12:37:00,40.8,19.0,31.01,North,0,0.0,0.0,41,0.00,,---,0.00,VWS V14.00,2013-03-25 16:37:00,
2013-03-25 12:43:00,41.9,19.9,31.01,North,0,0.0,0.0,41,0.00,,---,0.00,VWS V14.00,2013-03-25 16:43:00,
2013-03-25 12:49:00,42.4,19.8,31.01,North,0,0.0,0.0,40,0.00,,---,0.00,VWS V14.00,2013-03-25 16:49:00,
2013-03-25 12:54:00,42.8,20.2,31.01,North,0,0.0,0.0,40,0.00,,---,0.00,VWS V14.00,2013-03-25 16:54:00,
2013-03-25 12:59:00,43.9,20.5,31.01,North,0,0.0,0.0,39,0.00,,---,0.00,VWS V14.00,2013-03-25 16:59:00,
2013-03-25 13:05:00,44.8,20.7,31.01,North,0,0.0,0.0,38,0.00,,---,0.00,VWS V14.00,2013-03-25 17:05:00,
2013-03-25 13:10:00,43.9,20.5,31.01,North,0,0.0,0.0,39,0.00,,---,0.00,VWS V14.00,2013-03-25 17:10:00,
2013-03-25 13:15:00,43.5,20.2,31.01,North,0,0.0,0.0,39,0.00,,---,0.00,VWS V14.00,2013-03-25 17:15:00,
2013-03-25 13:20:00,43.2,19.9,31.01,North,0,0.0,0.0,39,0.00,,---,0.00,VWS V14.00,2013-03-25 17:20:00,
2013-03-25 13:26:00,42.8,19.6,31.01,North,0,0.0,0.0,39,0.00,,---,0.00,VWS V14.00,2013-03-25 17:26:00,
2013-03-25 13:31:00,42.4,19.8,31.01,North,0,0.0,0.0,40,0.00,,---,0.00,VWS V14.00,2013-03-25 17:31:00,
2013-03-25 13:36:00,42.4,19.8,31.01,North,0,0.0,0.0,40,0.00,,---,0.00,VWS V14.00,2013-03-25 17:36:00,
2013-03-25 13:41:00,42.6,20.0,31.01,North,0,0.0,0.0,40,0.00,,---,0.00,VWS V14.00,2013-03-25 17:41:00,
2013-03-25 13:47:00,42.4,19.8,31.01,North,0,0.0,0.0,40,0.00,,---,0.00,VWS V14.00,2013-03-25 17:47:00,
2013-03-25 13:53:00,41.7,19.8,31.01,North,0,0.0,0.0,41,0.00,,---,0.00,VWS V14.00,2013-03-25 17:53:00,
2013-03-25 13:58:00,41.7,19.8,31.01,North,0,0.0,0.0,41,0.00,,---,0.00,VWS V14.00,2013-03-25 17:58:00,
2013-03-25 14:03:00,41.7,19.8,31.01,North,0,0.0,0.0,41,0.00,,---,0.00,VWS V14.00,2013-03-25 18:03:00,
2013-03-25 14:09:00,41.7,19.8,31.01,North,0,0.0,0.0,41,0.00,,---,0.00,VWS V14.00,2013-03-25 18:09:00,
2013-03-25 14:15:00,41.5,19.6,31.01,North,0,0.0,0.0,41,0.00,,---,0.00,VWS V14.00,2013-03-25 18:15:00,
2013-03-25 14:22:00,41.5,20.2,31.01,North,0,0.0,0.0,42,0.00,,---,0.00,VWS V14.00,2013-03-25 18:22:00,
2013-03-25 14:28:00,41.5,20.2,31.01,North,0,0.0,0.0,42,0.00,,---,0.00,VWS V14.00,2013-03-25 18:28:00,
2013-03-25 14:33:00,41.5,19.6,31.01,North,0,0.0,0.0,41,0.00,,---,0.00,VWS V14.00,2013-03-25 18:33:00,
2013-03-25 14:38:00,41.4,20.0,31.01,North,0,0.0,0.0,42,0.00,,---,0.00,VWS V14.00,2013-03-25 18:38:00,
2013-03-25 14:44:00,40.8,19.5,31.01,North,0,0.0,0.0,42,0.00,,---,0.00,VWS V14.00,2013-03-25 18:44:00,
2013-03-25 14:50:00,41.0,19.7,31.01,North,0,0.0,0.0,42,0.00,,---,0.00,VWS V14.00,2013-03-25 18:50:00,
2013-03-25 14:55:00,40.8,19.5,31.01,North,0,0.0,0.0,42,0.00,,---,0.00,VWS V14.00,2013-03-25 18:55:00,
2013-03-25 15:01:00,40.6,19.4,31.01,North,0,0.0,0.0,42,0.00,,---,0.00,VWS V14.00,2013-03-25 19:01:00,
2013-03-25 15:06:00,41.0,19.7,31.01,North,0,0.0,0.0,42,0.00,,---,0.00,VWS V14.00,2013-03-25 19:06:00,
2013-03-25 15:11:00,41.0,19.7,31.01,North,0,0.0,0.0,42,0.00,,---,0.00,VWS V14.00,2013-03-25 19:11:00,
2013-03-25 15:17:00,41.4,19.5,31.01,North,0,0.0,0.0,41,0.00,,---,0.00,VWS V14.00,2013-03-25 19:17:00,
2013-03-25 15:23:00,41.4,19.5,31.01,North,0,0.0,0.0,41,0.00,,---,0.00,VWS V14.00,2013-03-25 19:23:00,
2013-03-25 15:28:00,41.0,19.1,31.01,North,0,0.0,0.0,41,0.00,,---,0.00,VWS V14.00,2013-03-25 19:28:00,
2013-03-25 15:33:00,40.8,19.5,31.01,North,0,0.0,0.0,42,0.00,,---,0.00,VWS V14.00,2013-03-25 19:33:00,
2013-03-25 15:38:00,40.6,19.9,31.01,North,0,0.0,0.0,43,0.00,,---,0.00,VWS V14.00,2013-03-25 19:38:00,
2013-03-25 15:43:00,40.6,19.4,31.01,North,0,0.0,0.0,42,0.00,,---,0.00,VWS V14.00,2013-03-25 19:43:00,
2013-03-25 15:48:00,40.5,19.2,31.01,North,0,0.0,0.0,42,0.00,,---,0.00,VWS V14.00,2013-03-25 19:48:00,
2013-03-25 15:54:00,40.5,19.7,31.01,North,0,0.0,0.0,43,0.00,,---,0.00,VWS V14.00,2013-03-25 19:54:00,
2013-03-25 15:59:00,40.6,19.9,31.01,North,0,0.0,0.0,43,0.00,,---,0.00,VWS V14.00,2013-03-25 19:59:00,
2013-03-25 16:04:00,41.2,19.3,31.01,North,0,0.0,0.0,41,0.00,,---,0.00,VWS V14.00,2013-03-25 20:04:00,
2013-03-25 16:10:00,41.7,19.2,31.01,North,0,0.0,0.0,40,0.00,,---,0.00,VWS V14.00,2013-03-25 20:10:00,
2013-03-25 16:15:00,41.4,18.9,31.01,North,0,0.0,0.0,40,0.00,,---,0.00,VWS V14.00,2013-03-25 20:15:00,
2013-03-25 16:20:00,40.8,18.4,31.01,North,0,0.0,0.0,40,0.00,,---,0.00,VWS V14.00,2013-03-25 20:20:00,
2013-03-25 16:25:00,40.3,17.9,31.01,North,0,0.0,0.0,40,0.00,,---,0.00,VWS V14.00,2013-03-25 20:25:00,
2013-03-25 16:30:00,39.7,18.0,31.01,North,0,0.0,0.0,41,0.00,,---,0.00,VWS V14.00,2013-03-25 20:30:00,
2013-03-25 16:36:00,39.7,18.0,31.01,North,0,0.0,0.0,41,0.00,,---,0.00,VWS V14.00,2013-03-25 20:36:00,
2013-03-25 16:42:00,39.9,17.6,31.01,North,0,0.0,0.0,40,0.00,,---,0.00,VWS V14.00,2013-03-25 20:42:00,
2013-03-25 16:47:00,40.1,18.3,31.01,North,0,0.0,0.0,41,0.00,,---,0.00,VWS V14.00,2013-03-25 20:47:00,
2013-03-25 16:52:00,40.5,18.1,31.01,North,0,0.0,0.0,40,0.00,,---,0.00,VWS V14.00,2013-03-25 20:52:00,
2013-03-25 16:58:00,40.5,18.1,31.01,North,0,0.0,0.0,40,0.00,,---,0.00,VWS V14.00,2013-03-25 20:58:00,
2013-03-25 17:04:00,40.5,18.1,31.01,North,0,0.0,0.0,40,0.00,,---,0.00,VWS V14.00,2013-03-25 21:04:00,
2013-03-25 17:10:00,40.5,18.1,31.01,North,0,0.0,0.0,40,0.00,,---,0.00,VWS V14.00,2013-03-25 21:10:00,
2013-03-25 17:15:00,40.5,18.1,31.01,North,0,0.0,0.0,40,0.00,,---,0.00,VWS V14.00,2013-03-25 21:15:00,
2013-03-25 17:21:00,40.5,18.1,31.01,North,0,0.0,0.0,40,0.00,,---,0.00,VWS V14.00,2013-03-25 21:21:00,
2013-03-25 17:26:00,40.3,17.9,31.01,North,0,0.0,0.0,40,0.00,,---,0.00,VWS V14.00,2013-03-25 21:26:00,
2013-03-25 17:32:00,39.9,18.1,31.01,North,0,0.0,0.0,41,0.00,,---,0.00,VWS V14.00,2013-03-25 21:32:00,
2013-03-25 17:37:00,39.6,17.8,31.01,North,0,0.0,0.0,41,0.00,,---,0.00,VWS V14.00,2013-03-25 21:37:00,
2013-03-25 17:43:00,39.4,17.7,31.01,North,0,0.0,0.0,41,0.00,,---,0.00,VWS V14.00,2013-03-25 21:43:00,
2013-03-25 17:49:00,39.2,18.0,31.01,North,0,0.0,0.0,42,0.00,,---,0.00,VWS V14.00,2013-03-25 21:49:00,
2013-03-25 17:54:00,39.0,17.9,31.01,North,0,0.0,0.0,42,0.00,,---,0.00,VWS V14.00,2013-03-25 21:54:00,
2013-03-25 18:00:00,38.7,18.1,31.01,North,0,0.0,0.0,43,0.00,,---,0.00,VWS V14.00,2013-03-25 22:00:00,
2013-03-25 18:05:00,38.5,17.9,31.01,North,0,0.0,0.0,43,0.00,,---,0.00,VWS V14.00,2013-03-25 22:05:00,
2013-03-25 18:11:00,38.3,17.8,31.01,North,0,0.0,0.0,43,0.00,,---,0.00,VWS V14.00,2013-03-25 22:11:00,
2013-03-25 18:16:00,38.1,17.6,31.01,North,0,0.0,0.0,43,0.00,,---,0.00,VWS V14.00,2013-03-25 22:16:00,
2013-03-25 18:22:00,38.1,18.1,31.01,North,0,0.0,0.0,44,0.00,,---,0.00,VWS V14.00,2013-03-25 22:22:00,
2013-03-25 18:27:00,37.8,17.8,31.01,North,0,0.0,0.0,44,0.00,,---,0.00,VWS V14.00,2013-03-25 22:27:00,
2013-03-25 18:32:00,37.8,17.8,31.01,North,0,0.0,0.0,44,0.00,,---,0.00,VWS V14.00,2013-03-25 22:32:00,
2013-03-25 18:38:00,37.6,18.2,31.01,North,0,0.0,0.0,45,0.00,,---,0.00,VWS V14.00,2013-03-25 22:38:00,
2013-03-25 18:43:00,37.2,18.9,31.01,North,0,0.0,0.0,47,0.00,,---,0.00,VWS V14.00,2013-03-25 22:43:00,
2013-03-25 18:48:00,37.0,19.2,31.01,North,0,0.0,0.0,48,0.00,,---,0.00,VWS V14.00,2013-03-25 22:48:00,
2013-03-25 18:53:00,36.9,19.5,31.01,North,0,0.0,0.0,49,0.00,,---,0.00,VWS V14.00,2013-03-25 22:53:00,
2013-03-25 18:59:00,36.9,19.5,31.01,North,0,0.0,0.0,49,0.00,,---,0.00,VWS V14.00,2013-03-25 22:59:00,
2013-03-25 19:04:00,36.7,19.8,31.01,North,0,0.0,0.0,50,0.00,,---,0.00,VWS V14.00,2013-03-25 23:04:00,
2013-03-25 19:09:00,36.9,20.0,31.01,North,0,0.0,0.0,50,0.00,,---,0.00,VWS V14.00,2013-03-25 23:09:00,
2013-03-25 19:14:00,36.9,19.5,31.01,North,0,0.0,0.0,49,0.00,,---,0.00,VWS V14.00,2013-03-25 23:14:00,
2013-03-25 19:20:00,36.9,19.5,31.01,North,0,0.0,0.0,49,0.00,,---,0.00,VWS V14.00,2013-03-25 23:20:00,
2013-03-25 19:25:00,36.9,19.5,31.01,North,0,0.0,0.0,49,0.00,,---,0.00,VWS V14.00,2013-03-25 23:25:00,
2013-03-25 19:30:00,36.9,19.5,31.01,North,0,0.0,0.0,49,0.00,,---,0.00,VWS V14.00,2013-03-25 23:30:00,
2013-03-25 19:35:00,36.7,19.3,31.01,North,0,0.0,0.0,49,0.00,,---,0.00,VWS V14.00,2013-03-25 23:35:00,
2013-03-25 19:40:00,36.7,18.9,31.01,North,0,0.0,0.0,48,0.00,,---,0.00,VWS V14.00,2013-03-25 23:40:00,
2013-03-25 19:46:00,36.7,19.3,31.01,North,0,0.0,0.0,49,0.00,,---,0.00,VWS V14.00,2013-03-25 23:46:00,
2013-03-25 19:51:00,36.5,18.7,31.01,North,0,0.0,0.0,48,0.00,,---,0.00,VWS V14.00,2013-03-25 23:51:00,
2013-03-25 19:57:00,36.5,19.2,31.01,North,0,0.0,0.0,49,0.00,,---,0.00,VWS V14.00,2013-03-25 23:57:00,
2013-03-25 20:02:00,36.3,19.0,31.01,North,0,0.0,0.0,49,0.00,,---,0.00,VWS V14.00,2013-03-26 00:02:00,
2013-03-25 20:08:00,36.3,19.0,31.01,North,0,0.0,0.0,49,0.00,,---,0.00,VWS V14.00,2013-03-26 00:08:00,
2013-03-25 20:13:00,36.3,19.0,31.01,North,0,0.0,0.0,49,0.00,,---,0.00,VWS V14.00,2013-03-26 00:13:00,
2013-03-25 20:18:00,36.1,18.8,31.01,North,0,0.0,0.0,49,0.00,,---,0.00,VWS V14.00,2013-03-26 00:18:00,
2013-03-25 20:23:00,36.1,19.3,31.01,North,0,0.0,0.0,50,0.00,,---,0.00,VWS V14.00,2013-03-26 00:23:00,
2013-03-25 20:29:00,36.1,19.3,31.01,North,0,0.0,0.0,50,0.00,,---,0.00,VWS V14.00,2013-03-26 00:29:00,
2013-03-25 20:34:00,36.0,19.1,31.01,North,0,0.0,0.0,50,0.00,,---,0.00,VWS V14.00,2013-03-26 00:34:00,
2013-03-25 20:39:00,36.1,19.3,31.01,North,0,0.0,0.0,50,0.00,,---,0.00,VWS V14.00,2013-03-26 00:39:00,
2013-03-25 20:44:00,36.1,19.3,31.01,North,0,0.0,0.0,50,0.00,,---,0.00,VWS V14.00,2013-03-26 00:44:00,
2013-03-25 20:49:00,36.1,19.3,31.01,North,0,0.0,0.0,50,0.00,,---,0.00,VWS V14.00,2013-03-26 00:49:00,
2013-03-25 20:55:00,36.0,19.1,31.01,North,0,0.0,0.0,50,0.00,,---,0.00,VWS V14.00,2013-03-26 00:55:00,
2013-03-25 21:00:00,35.8,19.0,31.01,North,0,0.0,0.0,50,0.00,,---,0.00,VWS V14.00,2013-03-26 01:00:00,
2013-03-25 21:05:00,35.8,19.4,31.01,North,0,0.0,0.0,51,0.00,,---,0.00,VWS V14.00,2013-03-26 01:05:00,
2013-03-25 21:10:00,35.8,19.4,31.01,North,0,0.0,0.0,51,0.00,,---,0.00,VWS V14.00,2013-03-26 01:10:00,
2013-03-25 21:16:00,35.8,19.4,31.01,North,0,0.0,0.0,51,0.00,,---,0.00,VWS V14.00,2013-03-26 01:16:00,
2013-03-25 21:22:00,35.8,19.4,31.01,North,0,0.0,0.0,51,0.00,,---,0.00,VWS V14.00,2013-03-26 01:22:00,
2013-03-25 21:27:00,35.8,19.4,31.01,North,0,0.0,0.0,51,0.00,,---,0.00,VWS V14.00,2013-03-26 01:27:00,
2013-03-25 21:32:00,35.8,19.4,31.01,North,0,0.0,0.0,51,0.00,,---,0.00,VWS V14.00,2013-03-26 01:32:00,
2013-03-25 21:38:00,35.8,19.4,31.01,North,0,0.0,0.0,51,0.00,,---,0.00,VWS V14.00,2013-03-26 01:38:00,
2013-03-25 21:43:00,35.8,19.4,31.01,North,0,0.0,0.0,51,0.00,,---,0.00,VWS V14.00,2013-03-26 01:43:00,
2013-03-25 21:48:00,35.8,19.4,31.01,North,0,0.0,0.0,51,0.00,,---,0.00,VWS V14.00,2013-03-26 01:48:00,
2013-03-25 21:53:00,35.8,19.4,31.01,North,0,0.0,0.0,51,0.00,,---,0.00,VWS V14.00,2013-03-26 01:53:00,
2013-03-25 21:58:00,35.8,19.4,31.01,North,0,0.0,0.0,51,0.00,,---,0.00,VWS V14.00,2013-03-26 01:58:00,
2013-03-25 22:04:00,35.6,19.3,31.01,North,0,0.0,0.0,51,0.00,,---,0.00,VWS V14.00,2013-03-26 02:04:00,
2013-03-25 22:09:00,35.6,19.3,31.01,North,0,0.0,0.0,51,0.00,,---,0.00,VWS V14.00,2013-03-26 02:09:00,
2013-03-25 22:14:00,35.6,19.3,31.01,North,0,0.0,0.0,51,0.00,,---,0.00,VWS V14.00,2013-03-26 02:14:00,
2013-03-25 22:19:00,35.6,19.3,31.01,North,0,0.0,0.0,51,0.00,,---,0.00,VWS V14.00,2013-03-26 02:19:00,
2013-03-25 22:25:00,35.4,19.6,31.01,North,0,0.0,0.0,52,0.00,,---,0.00,VWS V14.00,2013-03-26 02:25:00,
2013-03-25 22:30:00,35.4,19.6,31.01,North,0,0.0,0.0,52,0.00,,---,0.00,VWS V14.00,2013-03-26 02:30:00,
2013-03-25 22:35:00,35.2,19.4,31.01,North,0,0.0,0.0,52,0.00,,---,0.00,VWS V14.00,2013-03-26 02:35:00,
2013-03-25 22:40:00,35.2,19.8,31.01,North,0,0.0,0.0,53,0.00,,---,0.00,VWS V14.00,2013-03-26 02:40:00,
2013-03-25 22:45:00,35.2,19.8,31.01,North,0,0.0,0.0,53,0.00,,---,0.00,VWS V14.00,2013-03-26 02:45:00,
2013-03-25 22:51:00,35.2,19.8,31.01,North,0,0.0,0.0,53,0.00,,---,0.00,VWS V14.00,2013-03-26 02:51:00,
2013-03-25 22:57:00,35.4,20.0,31.01,North,0,0.0,0.0,53,0.00,,---,0.00,VWS V14.00,2013-03-26 02:57:00,
2013-03-25 23:03:00,35.4,20.0,31.01,North,0,0.0,0.0,53,0.00,,---,0.00,VWS V14.00,2013-03-26 03:03:00,
2013-03-25 23:08:00,35.4,19.6,31.01,North,0,0.0,0.0,52,0.00,,---,0.00,VWS V14.00,2013-03-26 03:08:00,
2013-03-25 23:14:00,35.4,19.6,31.01,North,0,0.0,0.0,52,0.00,,---,0.00,VWS V14.00,2013-03-26 03:14:00,
2013-03-25 23:20:00,35.4,19.6,31.01,North,0,0.0,0.0,52,0.00,,---,0.00,VWS V14.00,2013-03-26 03:20:00,
2013-03-25 23:25:00,35.4,19.6,31.01,North,0,0.0,0.0,52,0.00,,---,0.00,VWS V14.00,2013-03-26 03:25:00,
2013-03-25 23:30:00,35.4,19.6,31.01,North,0,0.0,0.0,52,0.00,,---,0.00,VWS V14.00,2013-03-26 03:30:00,
2013-03-25 23:37:00,35.4,19.6,31.01,North,0,0.0,0.0,52,0.00,,---,0.00,VWS V14.00,2013-03-26 03:37:00,
2013-03-25 23:42:00,35.4,19.1,31.01,North,0,0.0,0.0,51,0.00,,---,0.00,VWS V14.00,2013-03-26 03:42:00,
2013-03-25 23:47:00,35.4,19.1,31.01,North,0,0.0,0.0,51,0.00,,---,0.00,VWS V14.00,2013-03-26 03:47:00,
2013-03-25 23:52:00,35.6,18.8,31.01,North,0,0.0,0.0,50,0.00,,---,0.00,VWS V14.00,2013-03-26 03:52:00,
2013-03-25 23:57:00,35.6,18.8,31.01,North,0,0.0,0.0,50,0.00,,---,0.00,VWS V14.00,2013-03-26 03:57:00,